Back to catalog

THORAD DELTA 1 DEB

AliveLEO
NORAD 8169·DEBRIS·🇺🇸 United States

Launched Nov 15, 1974 from Vandenberg Space Force Base

Loading…

Next Passes (next 24 hours)

TLE

FreshSource: Space-Track

Epoch: Sep 13, 2026, 23:12 UTC

1  8169U 74089AK  26256.96678330  .00000528  00000-0  20225-2 0  9993
2  8169 102.5178 260.9323 0125100 330.3308  56.6543 12.94575241412268

Track THORAD DELTA 1 DEB in real time with AllMySat

Download on the App Store